[ hide orbit diagram ]
For accurate long-term ephemerides, please instead use our Horizons system.This orbit viewer was implemented using two-body methods, and hence should not be used for determining accurate long-term trajectories (over several years or decades) or planetary encounter circumstances.
Orbital Elements at Epoch 2459200.5 (2020-Dec-17.0) TDB
Reference: JPL 29 (heliocentric ecliptic J2000)
Element | Value | Uncertainty (1-sigma) | Units |
e | .1911536825248414 | 3.1976e-08 | |
a | 2.200658504467703 | 4.8767e-09 | au |
q | 1.779994527359091 | 6.9858e-08 | au |
i | 3.853027706720052 | 4.2285e-06 | deg |
node | 15.74872808040453 | 3.9305e-05 | deg |
peri | 297.4713970203529 | 4.0852e-05 | deg |
M | 172.5597629417069 | 1.201e-05 | deg |
tp | 2458628.936557494741 (2019-May-25.43655749) | 3.9505e-05 | TDB |
period | 1192.414939578949 3.26 | 3.9637e-06 1.085e-08 | d yr |
n | .3019083274209218 | 1.0036e-09 | deg/d |
Q | 2.621322481576314 | 5.809e-09 | au |
|
| | Orbit Determination Parameters
Additional Information
|
[ show covariance matrix ]
Physical Parameter Table
Parameter |
Symbol |
Value |
Units |
Sigma |
Reference |
Notes |
absolute magnitude |
H |
14.34 |
|
n/a |
E2021B10 |
|
|
7327 Crawford | Discovered 1983 Sept. 6 by E. Bowell at the Anderson Mesa Station of Lowell Observatory. |
Named in honor of David L. Crawford (b. 1931), astronomer at the Kitt Peak National Observatory recognized for his fundamental contributions to protecting dark skies around observatories from light pollution through good outdoor lighting practices. In 1972 he was instrumental in establishing the first comprehensive lighting code, which regulated outdoor lighting in southern Arizona, and the code has become a model for such regulation throughout the world. Crawford was cofounder and executive director of the International Dark-Sky Association, a worldwide organization dedicated to the preservation of dark skies. He was also responsible for establishing the fundamental standards of the Strömgren photometric system. Name suggested and citation provided by D. R. Davis. |
NOTE: some special characters may not display properly (any characters within {} are an attempt to place the proper accent above a character) |
Reference: 19990402/MPCPages.arc | Last Updated: 2010-06-11 |
|
Alternate Designations
1983 RZ1 = 1976 JC7 = 1980 VD4 = A908 QC |
|
|